Dewpoint
5 4 2 1 1 1 1 1 1 1 1 3 5 5 6 7 6 6 7 8 7 7 7 7 7 5 4 1 1 -2 -7 -3 -3 -4 -3 -2 -4 -4 -4 -4 -4 -4 -5 -5 -4 -4 -6
9 9 9 9 8 8 6 7 7 7 7 7 8 8 8 8 8 8 8 7 8 7 8 7 6 5 3 -1 0 -4 -7 -9 -3 -3 -4 -1 -2 -4 -4 -4 -3 -4 -4 -4 -4 -5 -7
10 10 9 9 9 9 9 10 9 10 10 10 9 9 9 9 9 8 8 8 7 7 8 7 6 1 1 2 -2 -4 -5 -6 -10 -3 -3 0 -1 -4 -4 -3 -3 -3 -4 -5 -5 -4 -4
9 9 9 9 9 9 10 10 10 9 9 9 9 9 9 9 8 7 8 8 7 8 7 6 2 -3 0 2 -3 -3 -2 -5 -7 -5 -4 -0 -1 -4 -4 -4 -3 -4 -4 -1 -5 -5 -6
8 8 8 8 8 8 9 9 9 10 9 9 9 9 9 8 8 7 7 7 7 6 5 -1 -5 -2 1 -1 -4 -4 -2 -2 -3 -3 -2 -2 -2 -4 -4 -2 0 -1 0 -2 -3 -6 -7
7 7 7 6 7 7 7 8 8 8 8 8 8 8 7 7 7 5 3 3 1 2 -0 -0 2 3 1 -1 -2 -4 -3 -2 -3 -4 -3 -2 -4 -3 -3 -1 -4 -1 -1 -1 -1 -4 -5
5 6 6 7 7 7 7 8 8 8 7 6 5 5 5 4 4 4 3 2 -1 0 -0 -0 0 1 -0 -0 -0 -1 -2 -3 -4 -4 -3 -4 -2 -1 -3 -2 -2 -2 -1 -0 -2 -3 -4
4 5 6 7 7 7 7 6 7 7 6 6 6 5 2 3 3 2 3 -0 -1 0 1 -1 -2 0 0 -1 -1 -1 -2 -0 -3 -3 -4 -3 -1 -3 -4 -3 -2 -1 -1 -1 -2 -2 -4
2 3 4 3 4 5 5 5 4 4 3 3 2 1 1 1 1 -0 1 -0 1 0 -1 -4 -3 -1 -3 -2 0 -2 -3 -1 -4 -4 -3 -3 -5 -5 -4 -4 -3 -4 -2 -2 -1 -3 -4
2 3 4 3 3 2 2 2 2 1 1 1 0 0 1 1 1 1 1 2 1 -0 -2 -3 -7 -5 -4 -3 -3 -7 -3 -3 -6 -2 -5 -5 -6 -5 -5 -5 -6 -4 -5 -2 -3 -3 -0
2 3 4 4 4 4 3 2 1 0 -0 1 1 0 1 1 1 -1 2 2 1 -5 1 -6 -8 -4 -6 -7 -7 -3 -3 -2 -2 -4 -5 -3 -4 -5 -4 -4 -6 -4 -3 -3 -3 -3 -2
3 3 3 3 3 3 3 2 2 0 -1 -0 1 0 -0 1 1 2 2 2 -1 -2 -2 -7 -4 -3 -6 -6 -6 -3 -3 -5 -5 -4 -4 -4 -6 -6 -5 -6 -5 -5 -4 -3 -2 -2 1
2 3 3 3 3 2 2 2 1 1 0 0 1 -1 -1 1 1 0 2 0 -3 -2 -7 -6 -6 -8 -5 -1 -3 -4 -2 -2 -2 -1 -1 -3 -4 -5 -6 -4 -6 -5 -3 1 0 1 2
2 2 3 3 3 3 2 2 2 1 0 0 1 0 -1 -1 0 -0 2 -0 0 -3 -5 -7 -9 -9 -8 -2 -1 -1 -2 -0 -3 -4 -3 -2 -1 -4 -6 -4 -4 -3 -3 1 2 1 -1
1 1 2 2 3 3 3 2 2 1 0 0 0 -0 -1 -2 -0 0 2 1 1 -2 -6 -7 -8 -9 -4 -3 -1 -0 -0 -1 -2 -4 -1 -2 -4 -9 -8 -7 -5 -3 -1 -4 -1 -2 -0
-1 -0 0 1 2 3 3 3 2 1 1 0 -0 0 -1 -2 0 2 3 2 0 -4 -6 -7 -8 -9 -5 -4 -2 -1 -1 -3 -3 -4 -5 -4 -4 -8 -10 -9 -9 -5 -5 -2 -2 -0 0
-2 -2 -2 -1 0 1 2 3 3 2 2 1 1 0 -1 -2 -1 2 3 1 -2 -3 -2 -6 -6 -5 -6 -6 -8 -5 -4 -5 -7 -9 -6 -6 -6 -6 -10 -9 -7 -7 -5 -5 -3 -2 -0
-5 -4 -5 -4 -2 -1 0 1 2 2 2 2 2 1 -1 -1 -0 1 1 -1 -2 -4 -3 -7 -7 -6 -5 -6 -6 -6 -3 -6 -7 -7 -6 -7 -6 -6 -8 -9 -8 -9 -8 -5 -1 1 1
-3 -3 -3 -4 -3 -2 -2 -1 1 2 2 2 1 0 1 0 -2 -1 -2 -1 -2 -3 -5 -5 -5 -5 -7 -7 -6 -5 -7 -8 -9 -5 -2 -4 -3 -1 -7 -10 -6 -5 -6 -6 -4 -3 -3
-3 -3 -3 -3 -4 -4 -3 -3 -1 1 1 1 1 1 0 2 -0 -3 -2 -1 -1 -3 -3 -3 -5 -7 -6 -7 -9 -7 -7 -7 -7 -8 -7 -5 -3 -3 -2 -5 -4 -5 -5 -6 -6 -1 -2
-6 -6 -6 -7 -6 -9 -10 -5 -3 0 1 1 1 0 -1 1 1 -0 -2 -2 -1 -2 -4 -4 -5 -6 -7 -5 -5 -6 -8 -8 -7 -6 -4 -5 -2 -3 -5 -6 -3 -5 -5 -5 -4 -5 -3
-5 -4 -4 -7 -11 -12 -14 -14 -12 -4 0 1 -0 -0 0 0 1 1 1 1 -1 -1 -3 -3 -3 -3 -3 -5 -7 -7 -5 -6 -4 -3 -5 -4 -3 -5 -4 -5 -3 -3 -5 -4 -3 -3 -2
-5 -4 -4 -6 -10 -13 -14 -11 -13 -13 -2 0 0 -0 -1 -1 -1 1 -0 0 -0 -1 -2 -3 -2 -1 -1 -2 -2 -2 -4 -7 -5 -2 -1 -1 -2 -1 -2 -4 -2 1 -1 -2 -2 -1 -1
-5 -6 -7 -6 -9 -14 -16 -13 -12 -10 -10 -2 -1 -0 -1 -1 -0 -1 -1 -1 -1 -1 -0 -2 -2 -1 -2 -2 -1 -1 -2 -2 -2 -1 -1 -0 0 0 -0 0 3 -2 -5 -4 -1 -2 -2
-6 -5 -7 -9 -6 -14 -19 -18 -14 -10 -7 -7 -1 -1 -1 -2 -2 -2 -1 -1 -1 -1 -1 -1 -1 -1 -2 -0 1 2 1 -2 -2 -2 -1 -1 -1 -1 1 2 -2 -3 -6 -6 -4 -2 -4
-7 -11 -12 -15 -17 -20 -21 -21 -19 -13 -6 -5 -6 -1 -1 -1 -2 -3 -3 -2 -1 -1 -2 -2 -3 -3 -1 1 2 2 1 1 -1 -2 -2 -3 -1 0 2 2 -0 -5 -5 -3 -4 -0 -4
-8 -11 -14 -16 -19 -21 -20 -20 -17 -14 -6 -5 -6 -8 -3 -2 -3 -2 1 -0 -1 -1 -2 -4 -2 -0 -1 1 2 1 2 -2 -1 -2 -4 1 1 2 2 2 0 -4 -6 -3 -0 -2 -2
-7 -9 -12 -16 -18 -20 -20 -20 -13 -7 -7 -5 -3 -7 -5 -3 -1 -1 -2 -0 1 1 0 -2 -1 -2 0 1 2 1 2 -1 -2 -3 -3 -2 1 1 1 2 2 -2 -3 -1 -2 -1 -0
-5 -8 -11 -15 -16 -18 -18 -17 -8 -6 -8 -5 -3 -6 -7 -3 -4 -1 -1 -1 0 -0 1 0 -0 -2 -2 -1 -0 0 1 -1 -1 0 -2 -2 -1 1 1 0 0 0 0 0 0 -0 -1
Wind_Speed
18 17 17 17 17 17 16 16 16 16 16 16 17 17 18 19 20 22 22 23 25 26 25 26 27 27 29 21 17 14 14 14 12 11 10 12 10 7 4 4 6 3 2 8 8 15 8
21 19 19 18 17 17 16 17 17 18 18 18 19 20 20 22 25 26 26 29 27 27 27 23 24 26 25 14 13 13 15 15 13 12 11 8 6 10 5 3 1 5 7 12 10 9 6
22 23 22 20 21 20 20 19 19 20 21 22 22 23 24 27 27 30 32 30 28 29 24 22 25 25 24 25 13 20 18 15 12 12 12 7 8 6 9 6 5 7 6 7 3 2 5
25 22 20 20 21 21 22 22 24 22 24 24 25 25 23 23 26 30 28 30 25 21 22 24 24 25 20 25 15 6 7 5 4 7 11 8 10 9 4 7 6 4 3 4 5 6 6
24 24 22 21 21 21 21 23 23 22 24 21 21 20 22 25 29 28 27 28 25 24 22 21 21 16 16 7 4 3 3 4 2 2 3 9 7 3 3 2 4 5 3 1 8 7 2
23 22 20 19 17 23 22 21 22 22 22 21 21 18 18 22 19 14 13 18 17 18 18 15 14 9 11 7 5 6 7 6 5 4 2 5 2 2 3 2 4 3 1 3 5 5 5
20 18 16 15 14 12 14 16 17 17 15 11 6 5 6 8 10 12 11 18 8 6 6 7 13 19 33 32 37 32 18 11 6 4 4 2 2 8 9 6 2 1 3 5 6 6 4
18 19 20 18 16 15 15 16 15 15 15 15 13 12 11 13 11 16 14 9 9 11 15 22 25 34 41 39 24 32 26 8 4 5 3 1 7 8 5 4 5 4 5 7 7 6 3
18 18 17 17 19 18 16 15 14 13 14 15 16 15 15 16 14 12 9 8 10 7 8 12 19 14 15 9 11 16 13 8 6 4 6 7 4 5 6 5 4 5 5 4 8 3 2
19 19 18 16 15 15 14 13 12 11 10 9 10 13 17 16 13 9 7 6 1 4 3 7 4 3 2 4 5 9 7 10 4 9 6 7 7 9 11 6 7 7 8 9 4 2 4
21 21 20 18 16 15 14 12 10 8 8 7 7 6 7 9 4 2 2 4 2 1 4 2 1 2 2 4 7 7 0 9 3 3 4 8 1 3 3 6 7 6 5 6 3 3 1
23 22 21 20 18 16 15 13 11 9 8 7 5 5 5 7 10 5 7 5 1 5 7 6 4 4 2 2 4 5 2 1 1 3 4 5 4 3 5 3 2 3 3 4 4 3 4
22 22 21 21 20 18 16 14 13 11 9 7 6 6 6 7 8 11 8 6 4 4 4 5 3 5 2 3 3 0 1 1 2 5 3 5 5 6 10 6 3 3 4 3 2 1 6
19 20 21 22 22 20 18 17 15 12 10 7 8 6 8 8 9 13 10 3 4 4 4 4 4 5 2 1 3 3 2 2 4 3 1 3 7 3 2 16 8 8 9 5 5 4 3
19 19 19 20 22 22 20 18 16 13 11 10 8 6 9 7 10 13 8 3 5 5 2 7 5 3 4 4 2 2 3 4 6 9 7 3 5 3 3 3 8 4 5 8 2 2 2
22 21 21 20 20 20 21 20 18 16 14 13 10 6 10 7 10 12 2 8 5 3 5 5 1 2 2 5 6 7 4 3 5 7 5 4 5 3 5 1 1 4 5 3 0 4 4
21 22 22 22 22 20 19 20 19 19 18 14 10 3 4 7 11 7 6 5 3 7 11 2 3 3 3 5 5 5 6 5 5 8 3 2 4 7 3 2 0 3 0 4 3 2 2
24 24 22 23 23 22 21 19 20 20 20 19 11 2 2 11 4 4 5 2 5 4 16 4 3 7 5 4 6 4 6 7 11 4 6 6 2 3 6 4 3 1 2 3 3 4 2
17 17 18 20 22 22 21 21 19 19 25 25 10 4 6 19 3 2 4 4 4 1 2 5 4 4 2 3 5 7 5 6 9 5 4 6 4 4 7 3 4 4 2 4 4 2 3
19 18 18 16 18 22 21 20 18 19 17 21 9 3 3 15 5 4 5 5 5 5 8 12 9 6 3 3 3 6 4 4 11 11 18 15 3 7 7 5 1 5 2 3 4 2 3
18 16 16 18 18 18 18 20 19 19 20 19 6 3 6 4 7 6 7 3 3 4 9 10 4 7 8 5 6 7 4 4 5 8 1 5 9 9 15 15 5 6 7 8 7 6 7
15 15 15 14 14 15 16 16 17 19 18 21 7 4 5 2 4 11 10 5 9 6 5 4 9 5 3 8 12 13 4 2 3 5 2 1 5 3 7 9 9 12 7 7 11 15 13
18 17 15 14 13 12 13 15 16 17 22 10 12 8 5 4 3 3 4 6 6 4 11 20 9 8 8 7 8 13 17 15 10 5 3 2 3 3 14 6 7 9 7 12 6 4 7
18 17 16 13 13 12 12 14 16 17 21 18 14 8 3 3 5 6 6 10 12 16 18 9 9 4 4 10 18 14 13 12 12 9 10 6 4 3 5 4 11 5 3 5 6 7 11
18 18 16 16 16 14 13 14 16 18 17 21 14 14 7 2 10 7 12 9 14 18 16 18 22 23 19 8 1 2 4 4 6 7 8 10 8 6 6 10 13 8 9 4 6 7 10
20 18 16 15 16 15 13 13 16 19 19 20 25 25 8 2 6 15 9 14 8 6 7 8 19 18 9 3 2 4 4 2 3 2 2 7 2 5 3 4 7 3 3 2 3 9 6
20 19 17 16 16 16 15 14 16 20 20 21 22 21 21 12 20 10 5 5 10 3 3 3 2 4 11 3 3 5 4 4 5 5 3 2 1 9 10 6 5 6 7 3 4 7 4
21 20 19 18 17 16 16 16 18 21 22 22 21 19 18 16 14 12 25 18 9 5 2 3 3 1 3 4 2 1 2 4 3 4 3 4 4 4 3 4 7 8 2 6 4 5 12
24 22 21 19 18 17 18 18 20 22 23 22 22 20 17 19 15 12 16 24 24 21 13 9 7 5 5 1 2 1 3 2 4 3 2 3 5 2 5 3 6 16 14 17 13 18 25
Wind_Direction
241 241 241 242 243 247 250 253 257 260 260 265 271 274 280 288 290 292 297 302 309 317 317 316 317 323 328 324 307 305 297 299 322 333 343 358 348 350 340 318 333 180 284 300 284 297 285
242 242 246 245 246 250 251 255 260 265 268 271 275 281 284 286 290 296 303 309 310 314 312 311 312 320 323 304 305 309 294 295 300 319 335 347 333 328 287 298 321 309 285 283 293 274 230
244 247 250 254 251 250 252 257 263 270 273 275 277 283 289 294 294 296 301 311 308 305 305 305 307 309 308 297 290 306 289 293 289 295 307 310 328 323 329 315 324 297 310 324 266 337 246
249 251 246 248 247 246 250 250 258 267 274 277 284 286 292 294 303 305 310 315 312 302 299 297 299 300 284 300 290 289 335 347 300 287 281 287 304 295 250 301 329 357 46 357 311 7 4
250 254 253 253 254 252 253 251 256 263 268 273 279 287 298 306 308 307 310 309 305 298 290 289 294 284 277 261 275 274 322 334 334 270 285 268 268 281 307 63 353 3 255 295 329 11 17
251 254 258 258 258 260 257 257 259 263 267 270 276 290 300 299 294 306 321 332 317 293 285 284 271 287 266 273 273 313 306 275 277 272 211 185 204 55 23 83 239 228 245 286 254 284 343
240 239 244 243 241 242 241 247 249 252 251 246 249 290 332 334 323 309 305 345 344 294 305 256 281 264 281 284 288 287 277 277 264 222 168 166 135 218 213 207 204 317 238 256 272 256 243
234 234 229 237 240 236 236 242 242 243 249 258 259 266 274 276 283 313 308 333 321 298 299 288 276 262 269 270 279 271 272 258 219 208 134 15 232 231 207 204 236 235 263 269 280 256 200
232 231 235 233 240 243 244 246 247 248 250 252 254 255 254 259 268 281 286 276 279 296 270 281 261 261 276 265 239 286 237 213 184 212 201 197 218 120 173 202 224 231 217 239 240 296 292
231 232 231 230 231 232 237 240 242 244 250 256 257 253 251 256 271 281 263 286 320 334 311 283 273 292 257 217 251 301 243 211 208 216 207 246 242 237 246 229 187 249 211 229 209 145 239
228 224 224 229 227 226 229 230 236 241 246 245 246 259 261 238 225 209 176 145 164 356 308 277 295 346 327 194 328 29 128 202 193 190 135 244 226 204 198 226 179 251 189 187 172 195 20
222 223 224 225 228 228 228 231 236 240 244 248 251 259 256 231 208 189 177 164 255 51 251 329 356 357 27 311 314 328 86 213 5 213 285 269 284 214 216 273 193 94 66 48 56 103 260
224 224 225 227 226 227 229 233 235 235 234 232 232 254 250 228 212 203 194 178 46 166 344 344 350 353 325 292 311 265 302 289 177 350 324 323 248 231 203 253 322 145 92 307 305 169 244
220 220 225 227 229 228 225 228 226 230 227 219 223 245 265 241 216 201 192 63 200 180 273 297 328 324 302 277 272 326 308 269 214 157 296 272 321 183 208 214 205 203 165 186 216 208 271
226 222 221 224 227 228 225 222 221 219 210 212 223 233 266 253 221 202 188 190 215 200 293 336 341 12 326 359 205 343 239 234 229 176 185 215 263 302 213 238 175 210 182 215 220 74 39
228 227 224 223 224 226 224 222 216 208 207 207 217 231 267 227 216 211 200 234 213 226 38 356 179 300 289 348 4 21 317 326 304 207 196 248 289 248 280 190 24 184 163 119 34 192 227
233 229 228 226 225 224 222 216 211 214 208 205 201 229 223 220 200 197 219 226 316 298 292 319 329 315 320 308 235 250 226 312 10 340 219 225 165 272 344 343 342 8 74 56 132 87 258
242 240 235 229 226 223 223 220 210 212 206 201 184 199 226 174 130 211 235 252 338 330 295 272 259 227 244 271 288 260 233 189 16 15 358 327 172 283 245 318 289 49 38 100 144 253 166
217 220 227 227 222 220 218 216 214 211 214 187 163 175 171 171 161 222 223 285 281 193 329 355 296 38 338 254 251 226 255 242 185 116 39 332 357 342 331 340 18 54 50 108 100 76 217
226 221 222 218 214 214 212 209 206 204 209 198 151 163 229 192 204 178 210 253 239 248 236 234 252 307 308 284 232 272 287 265 254 195 181 179 199 274 272 265 211 269 198 151 125 157 239
223 219 219 216 214 207 203 204 203 198 205 204 155 192 190 183 209 202 174 237 215 234 225 190 267 223 240 277 290 280 280 308 328 23 277 167 241 243 269 274 229 235 219 192 200 211 224
211 211 212 213 208 206 201 198 196 199 200 200 176 180 177 148 147 203 210 200 230 246 222 238 218 245 272 245 246 262 297 337 279 316 128 197 214 216 279 285 243 259 238 215 226 239 244
207 208 212 212 208 203 196 197 198 197 197 195 204 166 158 208 181 190 203 235 238 219 255 238 248 269 271 282 311 291 266 256 241 226 202 222 240 218 266 274 288 267 197 227 219 197 223
211 211 208 209 209 205 201 199 201 201 207 203 201 189 190 253 218 214 227 220 231 234 248 264 262 231 266 259 307 323 309 272 236 225 207 216 204 201 277 309 249 247 198 225 239 243 246
203 211 217 217 214 212 209 204 209 213 216 216 197 200 201 238 211 231 242 255 272 265 262 261 260 265 270 317 249 313 307 244 225 228 213 211 243 266 255 244 273 286 270 235 194 268 252
217 223 221 219 215 215 218 216 211 216 219 231 221 224 227 245 234 239 236 250 248 256 279 241 276 260 225 207 179 206 250 266 302 273 81 231 178 215 221 248 261 192 154 84 132 293 295
225 224 223 222 218 218 224 227 224 217 220 231 235 226 234 264 259 245 217 222 229 242 263 311 222 166 200 176 216 221 223 216 230 226 202 117 122 226 237 253 281 245 230 149 209 254 322
226 225 224 224 223 225 227 227 227 224 219 226 234 226 224 236 274 266 240 239 239 236 215 308 344 241 149 183 204 169 221 241 251 229 218 214 192 205 218 229 265 352 359 187 214 300 298
227 226 226 227 229 229 229 227 226 224 220 221 233 232 235 241 254 240 257 252 252 252 251 234 218 181 229 187 223 181 213 219 222 255 224 249 196 199 201 236 314 313 287 288 301 302 302
Height
1530 1530 1532 1533 1534 1536 1536 1537 1537 1538 1538 1539 1539 1538 1537 1537 1536 1534 1533 1532 1531 1530 1528 1525 1522 1520 1516 1514 1510 1507 1506 1506 1506 1503 1501 1500 1502 1501 1501 1497 1495 1494 1492 1492 1491 1490 1491
1527 1527 1530 1531 1531 1533 1532 1534 1535 1535 1536 1536 1536 1535 1534 1534 1533 1533 1531 1530 1529 1528 1527 1523 1520 1519 1517 1515 1506 1504 1503 1503 1504 1504 1503 1502 1502 1503 1500 1498 1498 1495 1493 1489 1487 1487 1488
1522 1524 1526 1528 1528 1529 1530 1531 1532 1533 1533 1534 1533 1533 1532 1532 1531 1530 1528 1526 1526 1525 1524 1521 1518 1516 1512 1508 1505 1503 1500 1497 1500 1502 1502 1502 1502 1503 1501 1498 1497 1495 1494 1488 1485 1485 1485
1519 1520 1521 1523 1524 1525 1527 1528 1529 1529 1531 1531 1530 1530 1529 1528 1529 1526 1524 1522 1523 1522 1521 1519 1516 1514 1506 1502 1501 1501 1498 1495 1495 1497 1500 1502 1502 1501 1500 1498 1496 1496 1497 1500 1487 1486 1487
1515 1516 1518 1519 1520 1521 1522 1523 1524 1526 1528 1527 1528 1528 1527 1525 1526 1524 1522 1519 1519 1519 1517 1515 1515 1513 1500 1497 1499 1499 1497 1496 1495 1495 1496 1499 1501 1501 1500 1502 1505 1504 1505 1500 1496 1487 1490
1510 1512 1514 1515 1516 1517 1518 1521 1522 1522 1524 1526 1526 1525 1524 1524 1523 1523 1521 1518 1515 1514 1514 1512 1510 1515 1501 1499 1497 1497 1497 1496 1495 1494 1495 1496 1499 1502 1505 1507 1513 1504 1502 1501 1501 1490 1488
1505 1507 1511 1512 1511 1512 1514 1517 1518 1520 1521 1521 1523 1523 1524 1524 1522 1523 1520 1516 1518 1514 1512 1511 1508 1505 1500 1498 1497 1493 1495 1496 1495 1494 1495 1496 1502 1503 1499 1499 1498 1500 1502 1502 1494 1488 1489
1503 1505 1505 1508 1510 1511 1512 1513 1516 1519 1518 1520 1522 1521 1521 1522 1520 1522 1519 1519 1517 1519 1506 1502 1498 1493 1489 1492 1489 1487 1494 1496 1494 1495 1493 1499 1500 1492 1492 1495 1498 1499 1501 1501 1492 1484 1486
1499 1501 1503 1503 1506 1509 1510 1511 1512 1514 1516 1517 1518 1518 1517 1519 1518 1518 1517 1518 1517 1515 1511 1493 1487 1487 1485 1487 1487 1481 1486 1485 1489 1493 1494 1497 1491 1487 1489 1492 1496 1497 1498 1496 1494 1486 1484
1496 1500 1500 1502 1503 1503 1507 1509 1509 1512 1512 1514 1515 1515 1515 1517 1518 1514 1516 1518 1518 1516 1517 1496 1487 1485 1485 1484 1486 1482 1479 1485 1487 1488 1491 1491 1485 1486 1488 1491 1492 1496 1486 1487 1487 1492 1499
1492 1494 1496 1502 1501 1502 1504 1504 1508 1509 1512 1512 1512 1513 1513 1514 1515 1514 1517 1517 1519 1517 1527 1491 1487 1486 1486 1487 1484 1481 1481 1483 1484 1487 1491 1489 1483 1484 1487 1486 1483 1485 1478 1483 1485 1491 1493
1487 1491 1493 1496 1499 1500 1502 1504 1506 1507 1509 1510 1511 1511 1512 1514 1514 1514 1516 1518 1521 1530 1523 1492 1487 1487 1487 1486 1484 1482 1482 1484 1484 1487 1486 1484 1482 1483 1483 1480 1480 1480 1482 1488 1493 1498 1507
1485 1486 1489 1494 1495 1497 1499 1501 1503 1505 1507 1508 1509 1511 1512 1513 1513 1515 1517 1519 1534 1537 1498 1496 1493 1490 1489 1487 1486 1483 1485 1486 1490 1493 1493 1486 1479 1475 1478 1483 1480 1482 1490 1504 1503 1507 1495
1480 1482 1486 1489 1493 1494 1495 1498 1500 1503 1506 1507 1507 1509 1512 1512 1512 1514 1517 1520 1529 1506 1502 1494 1493 1491 1491 1488 1487 1486 1487 1489 1484 1487 1494 1495 1490 1476 1472 1474 1477 1482 1487 1502 1496 1501 1495
1479 1479 1481 1485 1488 1492 1494 1494 1498 1501 1503 1505 1506 1508 1509 1511 1512 1514 1516 1525 1510 1506 1499 1498 1494 1494 1494 1489 1492 1489 1490 1489 1483 1482 1492 1492 1486 1470 1470 1468 1471 1476 1483 1474 1486 1494 1504
1474 1477 1479 1481 1484 1487 1490 1492 1494 1497 1500 1503 1504 1507 1508 1508 1511 1514 1514 1506 1504 1501 1500 1500 1498 1497 1497 1496 1497 1496 1493 1485 1483 1480 1478 1481 1488 1471 1469 1468 1469 1468 1470 1479 1487 1489 1496
1473 1473 1477 1479 1481 1484 1487 1488 1490 1494 1498 1502 1504 1507 1504 1505 1511 1513 1509 1509 1504 1502 1502 1503 1501 1500 1499 1499 1497 1496 1491 1486 1486 1484 1481 1480 1485 1477 1471 1472 1471 1473 1472 1476 1479 1485 1483
1468 1470 1474 1475 1478 1480 1484 1485 1486 1491 1494 1498 1501 1506 1502 1503 1512 1509 1507 1505 1508 1504 1503 1503 1502 1501 1499 1498 1496 1492 1488 1482 1482 1486 1489 1485 1484 1486 1479 1472 1472 1469 1472 1473 1485 1488 1494
1465 1466 1470 1473 1474 1478 1481 1481 1482 1487 1490 1494 1496 1500 1502 1503 1511 1510 1507 1507 1507 1504 1504 1504 1502 1501 1495 1495 1498 1490 1486 1480 1478 1482 1489 1491 1488 1495 1482 1476 1473 1476 1477 1478 1484 1490 1485
1462 1465 1469 1470 1469 1476 1478 1478 1478 1484 1488 1493 1495 1498 1501 1502 1502 1504 1506 1506 1506 1501 1502 1502 1500 1500 1499 1496 1494 1491 1485 1479 1477 1474 1479 1485 1491 1494 1494 1485 1482 1480 1476 1477 1482 1499 1491
1459 1463 1465 1468 1472 1474 1472 1475 1476 1479 1485 1491 1491 1493 1496 1496 1497 1501 1503 1502 1500 1503 1499 1497 1495 1497 1499 1501 1495 1492 1486 1481 1478 1477 1480 1479 1483 1486 1485 1482 1479 1475 1473 1474 1479 1480 1483
1458 1462 1466 1469 1470 1469 1469 1471 1474 1477 1483 1489 1491 1493 1493 1494 1494 1498 1500 1498 1499 1499 1498 1494 1493 1492 1494 1497 1494 1489 1486 1485 1483 1480 1477 1481 1483 1483 1482 1478 1476 1472 1471 1472 1471 1468 1467
1457 1461 1463 1465 1467 1467 1467 1470 1473 1477 1482 1482 1487 1490 1491 1490 1492 1497 1494 1495 1495 1495 1491 1489 1489 1489 1490 1490 1487 1484 1482 1481 1480 1480 1478 1481 1481 1481 1476 1473 1474 1478 1468 1463 1459 1459 1459
1455 1457 1460 1461 1462 1464 1467 1469 1472 1476 1479 1482 1484 1488 1491 1491 1491 1490 1490 1490 1491 1491 1488 1487 1487 1486 1485 1485 1483 1481 1479 1477 1475 1473 1474 1475 1478 1477 1475 1475 1476 1458 1455 1455 1458 1456 1453
1450 1454 1456 1458 1459 1462 1465 1468 1471 1475 1478 1479 1482 1486 1488 1487 1487 1487 1488 1488 1487 1486 1484 1482 1481 1482 1483 1486 1486 1482 1481 1473 1468 1466 1467 1472 1471 1472 1481 1476 1459 1456 1451 1451 1453 1448 1441
1447 1449 1452 1455 1457 1459 1463 1466 1469 1471 1475 1477 1480 1483 1485 1485 1481 1483 1482 1482 1482 1481 1478 1474 1475 1476 1478 1485 1482 1481 1476 1476 1468 1460 1461 1464 1468 1471 1479 1471 1464 1447 1444 1445 1446 1447 1435
1442 1446 1448 1452 1454 1457 1460 1463 1465 1469 1473 1476 1477 1481 1484 1482 1477 1480 1477 1477 1477 1476 1475 1472 1472 1473 1474 1479 1475 1475 1474 1468 1470 1462 1458 1466 1471 1469 1464 1463 1457 1443 1440 1443 1452 1447 1435
1438 1442 1445 1448 1451 1454 1457 1460 1463 1466 1470 1473 1474 1478 1480 1479 1473 1473 1473 1473 1474 1474 1474 1471 1474 1471 1475 1476 1475 1472 1472 1468 1463 1457 1455 1458 1464 1470 1466 1463 1460 1443 1442 1444 1439 1435 1435
1434 1438 1441 1444 1447 1451 1454 1457 1460 1462 1466 1470 1471 1473 1476 1477 1469 1468 1465 1466 1468 1469 1470 1469 1468 1466 1466 1469 1467 1466 1468 1466 1461 1462 1451 1465 1453 1456 1456 1454 1446 1444 1442 1438 1436 1435 1432